Time,TemperatureF,DewpointF,PressureIn,WindDirection,WindDirectionDegrees,WindSpeedMPH,WindSpeedGustMPH,Humidity,HourlyPrecipIn,Conditions,Clouds,dailyrainin,SoftwareType,DateUTC
2013-01-19 00:04:00,37.0,23.0,-100.00,South,185,19.0,25.0,56,-99.99,,,-99.99,,2013-01-19 05:04:00,
2013-01-19 00:12:00,37.0,23.0,-100.00,South,185,15.0,27.0,56,-99.99,,,-99.99,,2013-01-19 05:12:00,
2013-01-19 00:23:00,38.0,24.0,-100.00,South,190,18.0,30.0,55,-99.99,,,-99.99,,2013-01-19 05:23:00,
2013-01-19 00:33:00,39.0,24.0,-100.00,SSW,195,21.0,33.0,54,-99.99,,,-99.99,,2013-01-19 05:33:00,
2013-01-19 00:42:00,39.0,24.0,-100.00,SSW,195,21.0,35.0,54,-99.99,,,-99.99,,2013-01-19 05:42:00,
2013-01-19 00:52:00,38.0,24.0,-100.00,SSW,195,18.0,32.0,55,-99.99,,,-99.99,,2013-01-19 05:52:00,
2013-01-19 01:03:00,38.0,24.0,-100.00,SSW,195,15.0,31.0,55,-99.99,,,-99.99,,2013-01-19 06:03:00,
2013-01-19 01:12:00,38.0,24.0,-100.00,SSW,200,16.0,25.0,56,-99.99,,,-99.99,,2013-01-19 06:12:00,
2013-01-19 01:22:00,38.0,24.0,-100.00,SSW,195,15.0,25.0,56,-99.99,,,-99.99,,2013-01-19 06:22:00,
2013-01-19 01:33:00,39.0,24.0,-100.00,SSW,200,15.0,27.0,56,-99.99,,,-99.99,,2013-01-19 06:33:00,
2013-01-19 01:43:00,38.0,24.0,-100.00,South,185,14.0,26.0,56,-99.99,,,-99.99,,2013-01-19 06:43:00,
2013-01-19 01:52:00,38.0,24.0,-100.00,SSW,195,13.0,23.0,56,-99.99,,,-99.99,,2013-01-19 06:52:00,
2013-01-19 02:02:00,38.0,24.0,-100.00,SSW,195,12.0,21.0,57,-99.99,,,-99.99,,2013-01-19 07:02:00,
2013-01-19 02:12:00,38.0,24.0,-100.00,South,185,12.0,21.0,57,-99.99,,,-99.99,,2013-01-19 07:12:00,
2013-01-19 02:22:00,38.0,24.0,-100.00,SSW,200,14.0,20.0,57,-99.99,,,-99.99,,2013-01-19 07:22:00,
2013-01-19 02:33:00,38.0,24.0,-100.00,SSW,200,14.0,20.0,57,-99.99,,,-99.99,,2013-01-19 07:33:00,
2013-01-19 02:43:00,38.0,24.0,-100.00,South,180,7.0,24.0,58,-99.99,,,-99.99,,2013-01-19 07:43:00,
2013-01-19 02:52:00,37.0,24.0,-100.00,South,185,10.0,17.0,58,-99.99,,,-99.99,,2013-01-19 07:52:00,
2013-01-19 03:02:00,37.0,25.0,-100.00,South,180,6.0,14.0,59,-99.99,,,-99.99,,2013-01-19 08:02:00,
2013-01-19 03:12:00,37.0,24.0,-100.00,South,170,5.0,14.0,59,-99.99,,,-99.99,,2013-01-19 08:12:00,
2013-01-19 03:22:00,37.0,24.0,-100.00,South,190,7.0,12.0,60,-99.99,,,-99.99,,2013-01-19 08:22:00,
2013-01-19 03:32:00,37.0,25.0,-100.00,South,175,4.0,19.0,60,-99.99,,,-99.99,,2013-01-19 08:32:00,
2013-01-19 03:43:00,37.0,25.0,-100.00,SSE,155,7.0,17.0,60,-99.99,,,-99.99,,2013-01-19 08:43:00,
2013-01-19 03:52:00,37.0,24.0,-100.00,South,190,7.0,13.0,60,-99.99,,,-99.99,,2013-01-19 08:52:00,
2013-01-19 04:02:00,37.0,24.0,-100.00,South,190,7.0,13.0,60,-99.99,,,-99.99,,2013-01-19 09:02:00,
2013-01-19 04:12:00,37.0,25.0,-100.00,South,180,5.0,15.0,60,-99.99,,,-99.99,,2013-01-19 09:12:00,
2013-01-19 04:23:00,37.0,25.0,-100.00,South,180,4.0,10.0,60,-99.99,,,-99.99,,2013-01-19 09:23:00,
2013-01-19 04:33:00,37.0,25.0,-100.00,South,180,3.0,10.0,60,-99.99,,,-99.99,,2013-01-19 09:33:00,
2013-01-19 04:43:00,37.0,24.0,-100.00,SE,125,2.0,9.0,60,-99.99,,,-99.99,,2013-01-19 09:43:00,
2013-01-19 04:52:00,37.0,24.0,-100.00,South,185,2.0,7.0,60,-99.99,,,-99.99,,2013-01-19 09:52:00,
2013-01-19 05:02:00,36.0,24.0,-100.00,SE,130,4.0,9.0,61,-99.99,,,-99.99,,2013-01-19 10:02:00,
2013-01-19 05:12:00,36.0,24.0,-100.00,SSE,155,1.0,5.0,62,-99.99,,,-99.99,,2013-01-19 10:12:00,
2013-01-19 05:22:00,36.0,24.0,-100.00,NNE,20,0.0,6.0,62,-99.99,,,-99.99,,2013-01-19 10:22:00,
2013-01-19 05:32:00,35.0,24.0,-100.00,East,90,1.0,6.0,63,-99.99,,,-99.99,,2013-01-19 10:32:00,
2013-01-19 05:43:00,35.0,24.0,-100.00,SE,140,1.0,4.0,64,-99.99,,,-99.99,,2013-01-19 10:43:00,
2013-01-19 05:52:00,36.0,25.0,-100.00,ENE,70,1.0,8.0,64,-99.99,,,-99.99,,2013-01-19 10:52:00,
2013-01-19 06:03:00,37.0,25.0,-100.00,South,175,5.0,10.0,62,-99.99,,,-99.99,,2013-01-19 11:03:00,
2013-01-19 06:12:00,37.0,25.0,-100.00,South,180,4.0,12.0,60,-99.99,,,-99.99,,2013-01-19 11:12:00,
2013-01-19 07:48:00,40.0,25.0,-100.00,South,185,9.0,18.0,54,-99.99,,,-99.99,,2013-01-19 12:48:00,
2013-01-19 07:53:00,40.0,25.0,-100.00,SSW,205,12.0,19.0,54,-99.99,,,-99.99,,2013-01-19 12:53:00,
2013-01-19 08:03:00,40.0,25.0,-100.00,SSW,200,11.0,19.0,54,-99.99,,,-99.99,,2013-01-19 13:03:00,
2013-01-19 08:12:00,40.0,26.0,-100.00,South,185,12.0,20.0,54,-99.99,,,-99.99,,2013-01-19 13:12:00,
2013-01-19 08:22:00,40.0,26.0,-100.00,SSW,200,13.0,17.0,55,-99.99,,,-99.99,,2013-01-19 13:22:00,
2013-01-19 08:33:00,41.0,26.0,-100.00,South,185,9.0,19.0,54,-99.99,,,-99.99,,2013-01-19 13:33:00,
2013-01-19 08:43:00,41.0,26.0,-100.00,South,185,10.0,16.0,55,-99.99,,,-99.99,,2013-01-19 13:43:00,
2013-01-19 08:53:00,41.0,26.0,-100.00,SSW,200,12.0,16.0,55,-99.99,,,-99.99,,2013-01-19 13:53:00,
2013-01-19 09:03:00,41.0,26.0,-100.00,South,190,14.0,22.0,55,-99.99,,,-99.99,,2013-01-19 14:03:00,
2013-01-19 09:12:00,41.0,27.0,-100.00,SSW,195,12.0,23.0,55,-99.99,,,-99.99,,2013-01-19 14:12:00,
2013-01-19 09:23:00,41.0,27.0,-100.00,South,185,12.0,18.0,55,-99.99,,,-99.99,,2013-01-19 14:23:00,
2013-01-19 09:34:00,42.0,27.0,-100.00,South,190,13.0,19.0,55,-99.99,,,-99.99,,2013-01-19 14:34:00,
2013-01-19 09:43:00,42.0,27.0,-100.00,South,190,13.0,19.0,55,-99.99,,,-99.99,,2013-01-19 14:43:00,
2013-01-19 09:53:00,42.0,28.0,-100.00,South,185,12.0,21.0,55,-99.99,,,-99.99,,2013-01-19 14:53:00,
2013-01-19 10:03:00,43.0,28.0,-100.00,South,190,14.0,22.0,54,-99.99,,,-99.99,,2013-01-19 15:03:00,
2013-01-19 10:13:00,44.0,28.0,-100.00,SSW,205,15.0,21.0,54,-99.99,,,-99.99,,2013-01-19 15:13:00,
2013-01-19 10:23:00,44.0,29.0,-100.00,SSW,205,14.0,24.0,53,-99.99,,,-99.99,,2013-01-19 15:23:00,
2013-01-19 10:33:00,45.0,29.0,-100.00,SSW,200,13.0,25.0,52,-99.99,,,-99.99,,2013-01-19 15:33:00,
2013-01-19 10:43:00,45.0,29.0,-100.00,SSW,200,14.0,23.0,52,-99.99,,,-99.99,,2013-01-19 15:43:00,
2013-01-19 10:53:00,46.0,29.0,-100.00,SW,215,15.0,26.0,51,-99.99,,,-99.99,,2013-01-19 15:53:00,
2013-01-19 11:03:00,47.0,30.0,-100.00,SSW,195,14.0,23.0,50,-99.99,,,-99.99,,2013-01-19 16:03:00,
2013-01-19 11:13:00,48.0,30.0,-100.00,SSW,200,14.0,24.0,49,-99.99,,,-99.99,,2013-01-19 16:13:00,
2013-01-19 11:23:00,48.0,30.0,-100.00,SW,225,18.0,27.0,48,-99.99,,,-99.99,,2013-01-19 16:23:00,
2013-01-19 11:33:00,49.0,30.0,-100.00,South,190,21.0,28.0,47,-99.99,,,-99.99,,2013-01-19 16:33:00,
2013-01-19 11:43:00,49.0,30.0,-100.00,SSW,210,17.0,23.0,47,-99.99,,,-99.99,,2013-01-19 16:43:00,
2013-01-19 11:53:00,49.0,30.0,-100.00,SSW,195,20.0,29.0,47,-99.99,,,-99.99,,2013-01-19 16:53:00,
2013-01-19 12:03:00,49.0,30.0,-100.00,SSW,195,19.0,32.0,47,-99.99,,,-99.99,,2013-01-19 17:03:00,
2013-01-19 12:29:00,51.0,31.0,-100.00,SSW,195,18.0,32.0,45,-99.99,,,-99.99,,2013-01-19 17:29:00,
2013-01-19 12:36:00,50.0,30.0,-100.00,SSW,210,15.0,27.0,46,-99.99,,,-99.99,,2013-01-19 17:36:00,
2013-01-19 12:48:00,50.0,31.0,-100.00,SSW,205,19.0,30.0,46,-99.99,,,-99.99,,2013-01-19 17:48:00,
2013-01-19 12:53:00,51.0,31.0,-100.00,SSW,195,16.0,28.0,46,-99.99,,,-99.99,,2013-01-19 17:53:00,
2013-01-19 13:12:00,51.0,31.0,-100.00,SSW,205,21.0,27.0,46,-99.99,,,-99.99,,2013-01-19 18:12:00,
2013-01-19 13:36:00,51.0,31.0,-100.00,SSW,195,21.0,28.0,46,-99.99,,,-99.99,,2013-01-19 18:36:00,
2013-01-19 13:45:00,51.0,31.0,-100.00,SSW,200,15.0,27.0,46,-99.99,,,-99.99,,2013-01-19 18:45:00,
2013-01-19 13:55:00,51.0,32.0,-100.00,SSW,195,21.0,29.0,46,-99.99,,,-99.99,,2013-01-19 18:55:00,
2013-01-19 14:09:00,52.0,32.0,-100.00,SSW,195,18.0,27.0,46,-99.99,,,-99.99,,2013-01-19 19:09:00,
2013-01-19 14:20:00,52.0,32.0,-100.00,South,190,17.0,28.0,45,-99.99,,,-99.99,,2013-01-19 19:20:00,
2013-01-19 14:30:00,52.0,32.0,-100.00,South,190,17.0,28.0,45,-99.99,,,-99.99,,2013-01-19 19:30:00,
2013-01-19 14:40:00,52.0,31.0,-100.00,SSW,195,18.0,34.0,45,-99.99,,,-99.99,,2013-01-19 19:40:00,
2013-01-19 14:47:00,52.0,32.0,-100.00,SSW,195,21.0,29.0,45,-99.99,,,-99.99,,2013-01-19 19:47:00,
2013-01-19 14:54:00,52.0,32.0,-100.00,South,190,17.0,30.0,45,-99.99,,,-99.99,,2013-01-19 19:54:00,
2013-01-19 15:11:00,52.0,32.0,-100.00,South,190,19.0,29.0,45,-99.99,,,-99.99,,2013-01-19 20:11:00,
2013-01-19 15:19:00,52.0,31.0,-100.00,South,190,20.0,32.0,45,-99.99,,,-99.99,,2013-01-19 20:19:00,
2013-01-19 15:25:00,53.0,32.0,-100.00,South,190,12.0,29.0,45,-99.99,,,-99.99,,2013-01-19 20:25:00,
2013-01-19 15:39:00,52.0,31.0,-100.00,SSW,200,17.0,31.0,45,-99.99,,,-99.99,,2013-01-19 20:39:00,
2013-01-19 15:48:00,52.0,31.0,-100.00,South,185,19.0,27.0,45,-99.99,,,-99.99,,2013-01-19 20:48:00,
2013-01-19 15:54:00,52.0,32.0,-100.00,South,185,15.0,27.0,45,-99.99,,,-99.99,,2013-01-19 20:54:00,
2013-01-19 16:07:00,52.0,31.0,-100.00,SSW,195,20.0,32.0,45,-99.99,,,-99.99,,2013-01-19 21:07:00,
2013-01-19 16:14:00,52.0,31.0,-100.00,SSW,195,17.0,29.0,45,-99.99,,,-99.99,,2013-01-19 21:14:00,
2013-01-19 16:26:00,52.0,32.0,-100.00,South,185,17.0,32.0,45,-99.99,,,-99.99,,2013-01-19 21:26:00,
2013-01-19 16:45:00,52.0,31.0,-100.00,SSW,195,14.0,29.0,45,-99.99,,,-99.99,,2013-01-19 21:45:00,
2013-01-19 16:57:00,52.0,32.0,-100.00,South,185,12.0,25.0,45,-99.99,,,-99.99,,2013-01-19 21:57:00,
2013-01-19 17:15:00,52.0,31.0,-100.00,South,190,18.0,27.0,45,-99.99,,,-99.99,,2013-01-19 22:15:00,
2013-01-19 17:27:00,51.0,31.0,-100.00,South,190,15.0,26.0,45,-99.99,,,-99.99,,2013-01-19 22:27:00,
2013-01-19 17:35:00,50.0,30.0,-100.00,South,185,14.0,26.0,45,-99.99,,,-99.99,,2013-01-19 22:35:00,
2013-01-19 17:47:00,50.0,30.0,-100.00,SSW,200,17.0,23.0,45,-99.99,,,-99.99,,2013-01-19 22:47:00,
2013-01-19 17:55:00,50.0,30.0,-100.00,SSW,195,11.0,21.0,45,-99.99,,,-99.99,,2013-01-19 22:55:00,
2013-01-19 18:13:00,50.0,29.0,-100.00,South,185,15.0,21.0,44,-99.99,,,-99.99,,2013-01-19 23:13:00,
2013-01-19 18:25:00,50.0,29.0,-100.00,SSW,195,14.0,23.0,44,-99.99,,,-99.99,,2013-01-19 23:25:00,
2013-01-19 18:35:00,50.0,29.0,-100.00,SSW,200,11.0,24.0,44,-99.99,,,-99.99,,2013-01-19 23:35:00,
2013-01-19 18:45:00,50.0,29.0,-100.00,SSW,200,13.0,21.0,44,-99.99,,,-99.99,,2013-01-19 23:45:00,
2013-01-19 19:09:00,50.0,29.0,-100.00,SSW,200,12.0,20.0,44,-99.99,,,-99.99,,2013-01-20 00:09:00,
2013-01-19 19:15:00,50.0,29.0,-100.00,SSW,195,17.0,23.0,43,-99.99,,,-99.99,,2013-01-20 00:15:00,
2013-01-19 19:25:00,50.0,29.0,-100.00,SSW,205,13.0,19.0,44,-99.99,,,-99.99,,2013-01-20 00:25:00,
2013-01-19 19:36:00,50.0,29.0,-100.00,South,190,16.0,24.0,43,-99.99,,,-99.99,,2013-01-20 00:36:00,
2013-01-19 19:46:00,50.0,29.0,-100.00,SSW,200,17.0,24.0,44,-99.99,,,-99.99,,2013-01-20 00:46:00,
2013-01-19 20:04:00,50.0,29.0,-100.00,SSW,205,16.0,28.0,43,-99.99,,,-99.99,,2013-01-20 01:04:00,
2013-01-19 20:20:00,50.0,29.0,-100.00,SSW,195,17.0,29.0,44,-99.99,,,-99.99,,2013-01-20 01:20:00,
2013-01-19 20:27:00,50.0,29.0,-100.00,SSW,200,19.0,30.0,44,-99.99,,,-99.99,,2013-01-20 01:27:00,
2013-01-19 20:38:00,50.0,29.0,-100.00,SSW,200,19.0,30.0,44,-99.99,,,-99.99,,2013-01-20 01:38:00,
2013-01-19 21:15:00,49.0,29.0,-100.00,SSW,200,19.0,29.0,45,-99.99,,,-99.99,,2013-01-20 02:15:00,
2013-01-19 21:26:00,49.0,29.0,-100.00,SSW,200,17.0,25.0,45,-99.99,,,-99.99,,2013-01-20 02:26:00,
2013-01-19 21:36:00,49.0,29.0,-100.00,SSW,200,17.0,26.0,45,-99.99,,,-99.99,,2013-01-20 02:36:00,
2013-01-19 21:44:00,49.0,29.0,-100.00,SSW,200,17.0,26.0,45,-99.99,,,-99.99,,2013-01-20 02:44:00,
2013-01-19 21:55:00,49.0,29.0,-100.00,SSW,200,22.0,28.0,45,-99.99,,,-99.99,,2013-01-20 02:55:00,
2013-01-19 22:08:00,49.0,29.0,-100.00,SSW,205,23.0,34.0,45,-99.99,,,-99.99,,2013-01-20 03:08:00,
2013-01-19 22:14:00,49.0,29.0,-100.00,SSW,200,25.0,30.0,45,-99.99,,,-99.99,,2013-01-20 03:14:00,
2013-01-19 22:39:00,49.0,29.0,-100.00,SSW,210,18.0,29.0,46,-99.99,,,-99.99,,2013-01-20 03:39:00,
2013-01-19 22:45:00,49.0,29.0,-100.00,SSW,210,17.0,27.0,46,-99.99,,,-99.99,,2013-01-20 03:45:00,
2013-01-19 22:54:00,49.0,29.0,-100.00,SW,215,17.0,24.0,46,-99.99,,,-99.99,,2013-01-20 03:54:00,
2013-01-19 23:05:00,49.0,29.0,-100.00,SW,215,17.0,24.0,46,-99.99,,,-99.99,,2013-01-20 04:05:00,
2013-01-19 23:15:00,49.0,30.0,-100.00,SSW,210,19.0,29.0,47,-99.99,,,-99.99,,2013-01-20 04:15:00,
2013-01-19 23:37:00,49.0,31.0,-100.00,SSW,205,19.0,30.0,48,-99.99,,,-99.99,,2013-01-20 04:37:00,
2013-01-19 23:45:00,50.0,31.0,-100.00,SW,215,21.0,32.0,48,-99.99,,,-99.99,,2013-01-20 04:45:00,
2013-01-19 23:54:00,50.0,31.0,-100.00,SW,215,21.0,32.0,49,-99.99,,,-99.99,,2013-01-20 04:54:00,